Regional Weather Roundup
Issued by NWS

Home | Current Version | Previous Version | Text Only | Print | Product List | Glossary On
Versions: 1 2 3 4 5 6 7 8 9 10 11 12 13 14 15 16 17 18 19 20 21 22 23 24 25 26 27 28 29 30 31 32 33 34 35 36 37 38 39 40 41 42 43 44 45 46 47 48 49 50
000
ASUS44 KOUN 092010
RWROK

WEATHER ROUNDUP FOR OKLAHOMA
NATIONAL WEATHER SERVICE NORMAN OK
200 PM CST TUE FEB 09 2016

NOTE: "FAIR" INDICATES FEW OR NO CLOUDS BELOW 12,000 FEET WITH NO
      SIGNIFICANT WEATHER AND/OR OBSTRUCTIONS TO VISIBILITY.

OKZ001>007-009>012-014-015-017-092100-
NORTHWEST OKLAHOMA AND THE PANHANDLE

CITY           SKY/WX    TMP DP  RH WIND       PRES   REMARKS
GAGE           SUNNY     57  26  30 N14       30.26F
GUYMON         SUNNY     63  25  23 N23G36    30.25F
ENID/WOODRING  MOSUNNY   45  21  39 N20G29    30.27F
$$

OKZ016-021>023-033>039-044-045-092100-
SOUTHWEST OKLAHOMA

CITY           SKY/WX    TMP DP  RH WIND       PRES   REMARKS
LAWTON/REGL    SUNNY     58  27  30 N13       30.25F
LAWTON/FT SILL SUNNY     57  27  31 N17       30.23F
FREDERICK      SUNNY     60  31  33 N13       30.21F
CLINTON        SUNNY     56  27  32 N12       30.26F
HOBART         SUNNY     59  29  31 NE14G24   30.25F
ALTUS AFB      SUNNY     61  27  27 NE14      30.23F
$$

OKZ018>020-024>031-092100-
CENTRAL OKLAHOMA

CITY           SKY/WX    TMP DP  RH WIND       PRES   REMARKS
OKLAHOMA CITY  MOSUNNY   51  21  30 N20G28    30.26S
OKC/WILEY POST MOSUNNY   49  21  33 N20G30    30.27S
OKC/TINKER AFB MOSUNNY   49  20  31 NW18G28   30.25S
STILLWATER     PTSUNNY   46  17  31 N15G29    30.27S
GUTHRIE        CLOUDY    48  18  30 NW15G30   30.27F
$$

OKZ008-013-054>072-092100-
NORTHEAST OKLAHOMA

CITY           SKY/WX    TMP DP  RH WIND       PRES   REMARKS
TULSA          PTSUNNY   47  13  25 N22G37    30.20F
TULSA/JONES    SUNNY     47  15  27 NW9G30    30.22F
PONCA CITY     CLOUDY    44  18  35 NW17G28   30.27F
BARTLESVILLE   SUNNY     45  11  25 MISG      30.25F
MUSKOGEE       SUNNY     47  16  29 NW26G36   30.21F
$$

OKZ032-040>043-046>053-073>077-092100-
SOUTH CENTRAL/SOUTHEAST OKLAHOMA

CITY           SKY/WX    TMP DP  RH WIND       PRES   REMARKS
ARDMORE/DWNTWN SUNNY     55  19  24 NW7G21    30.23F
MCALESTER      LGT RAIN  50  16  25 NW22G28   30.21F
$$




USA.gov is the U.S. government's official web portal to all federal, state and local government web resources and services.